• In Germany
  • List of Countries
  • For 7 days
  • Water Temperature
  • Satellite Maps
  • Weather Map
  • Weather Widgets
  • user-avatar
    Login

    Hourly Weather Kalat

    Today, 26 September, Tuesday

    Time Temperature Precipitation Wind Pressure Humidity
    00:00 -1°C° 0 mm 2 mps 478 mmHg 53%
    01:00 -1°C° 0 mm 2 mps 477 mmHg 53%
    02:00 -1°C° 0 mm 2 mps 477 mmHg 54%
    03:00 -1°C° 0 mm 2 mps 477 mmHg 53%
    04:00 -1°C° 0 mm 2 mps 477 mmHg 52%
    05:00 -2°C° 0 mm 2 mps 477 mmHg 51%
    06:00 -1°C° 0 mm 2 mps 477 mmHg 45%
    07:00 +2°C° 0 mm 1 mps 478 mmHg 38%
    08:00 +3°C° 0 mm 1 mps 479 mmHg 32%
    09:00 +5°C° 0 mm 1 mps 480 mmHg 28%
    10:00 +6°C° 0 mm 1 mps 481 mmHg 24%
    11:00 +7°C° 0 mm 1 mps 482 mmHg 19%
    12:00 +7°C° 0 mm 2 mps 482 mmHg 20%
    13:00 +8°C° 0 mm 2 mps 482 mmHg 20%
    14:00 +8°C° 0 mm 2 mps 482 mmHg 20%
    15:00 +8°C° 0 mm 2 mps 482 mmHg 22%
    16:00 +8°C° 0 mm 2 mps 482 mmHg 24%
    17:00 +8°C° 0 mm 3 mps 482 mmHg 26%
    18:00 +6°C° 0 mm 2 mps 481 mmHg 31%
    19:00 +5°C° 0 mm 2 mps 480 mmHg 36%
    20:00 +5°C° 0 mm 1 mps 480 mmHg 41%
    21:00 +4°C° 0 mm 1 mps 480 mmHg 42%
    22:00 +4°C° 0 mm 1 mps 479 mmHg 42%
    23:00 +4°C° 0 mm 1 mps 479 mmHg 43%

    Tomorrow, 27 September, Wednesday

    Time Temperature Precipitation Wind Pressure Humidity
    00:00 +3°C° 0 mm 1 mps 479 mmHg 42%
    01:00 +3°C° 0 mm 1 mps 479 mmHg 42%
    02:00 +3°C° 0 mm 1 mps 478 mmHg 41%
    03:00 +2°C° 0 mm 1 mps 478 mmHg 40%
    04:00 +2°C° 0 mm 1 mps 478 mmHg 39%
    05:00 +1°C° 0 mm 2 mps 478 mmHg 38%
    06:00 +2°C° 0 mm 2 mps 479 mmHg 35%
    07:00 +3°C° 0 mm 2 mps 480 mmHg 31%
    08:00 +4°C° 0 mm 2 mps 481 mmHg 28%
    09:00 +5°C° 0 mm 2 mps 481 mmHg 26%
    10:00 +6°C° 0 mm 2 mps 482 mmHg 24%
    11:00 +7°C° 0 mm 2 mps 483 mmHg 22%
    12:00 +7°C° 0 mm 2 mps 483 mmHg 22%
    13:00 +8°C° 0 mm 3 mps 483 mmHg 23%
    14:00 +8°C° 0 mm 3 mps 483 mmHg 23%
    15:00 +8°C° 0 mm 3 mps 483 mmHg 25%
    16:00 +7°C° 0 mm 3 mps 482 mmHg 26%
    17:00 +7°C° 0 mm 3 mps 482 mmHg 28%
    18:00 +5°C° 0 mm 3 mps 481 mmHg 32%
    19:00 +5°C° 0 mm 2 mps 481 mmHg 36%
    20:00 +4°C° 0 mm 2 mps 480 mmHg 40%
    21:00 +3°C° 0 mm 2 mps 480 mmHg 42%
    22:00 +3°C° 0 mm 2 mps 480 mmHg 44%
    23:00 +2°C° 0 mm 2 mps 479 mmHg 46%

    Day after tomorrow, 28 September, Thursday

    Time Temperature Precipitation Wind Pressure Humidity
    00:00 +2°C° 0 mm 2 mps 479 mmHg 45%
    01:00 +2°C° 0 mm 2 mps 479 mmHg 44%
    02:00 +1°C° 0 mm 2 mps 478 mmHg 43%
    03:00 +1°C° 0 mm 2 mps 478 mmHg 41%
    04:00 +1°C° 0 mm 2 mps 478 mmHg 40%
    05:00 +1°C° 0 mm 2 mps 477 mmHg 38%
    06:00 +2°C° 0 mm 2 mps 478 mmHg 33%
    07:00 +4°C° 0 mm 1 mps 479 mmHg 29%
    08:00 +5°C° 0 mm 1 mps 480 mmHg 24%
    09:00 +6°C° 0 mm 1 mps 481 mmHg 22%
    10:00 +7°C° 0 mm 2 mps 482 mmHg 20%
    11:00 +8°C° 0 mm 2 mps 482 mmHg 18%
    12:00 +8°C° 0 mm 2 mps 482 mmHg 18%
    13:00 +9°C° 0 mm 3 mps 482 mmHg 18%
    14:00 +9°C° 0 mm 3 mps 482 mmHg 18%
    15:00 +9°C° 0 mm 3 mps 482 mmHg 20%
    16:00 +8°C° 0 mm 3 mps 482 mmHg 22%
    17:00 +7°C° 0 mm 4 mps 481 mmHg 23%
    18:00 +5°C° 0 mm 3 mps 481 mmHg 27%
    19:00 +4°C° 0 mm 3 mps 480 mmHg 31%
    20:00 +4°C° 0 mm 2 mps 480 mmHg 35%
    21:00 +4°C° 0 mm 2 mps 480 mmHg 37%
    22:00 +3°C° 0 mm 2 mps 479 mmHg 38%
    23:00 +3°C° 0 mm 2 mps 479 mmHg 40%

    29 September, Friday

    Time Temperature Precipitation Wind Pressure Humidity
    00:00 +2°C° 0 mm 2 mps 479 mmHg 40%
    01:00 +2°C° 0 mm 2 mps 478 mmHg 40%
    02:00 +1°C° 0 mm 2 mps 478 mmHg 40%
    03:00 +1°C° 0 mm 2 mps 478 mmHg 40%
    04:00 +1°C° 0 mm 2 mps 478 mmHg 40%
    05:00 -1°C° 0 mm 2 mps 477 mmHg 40%
    06:00 +1°C° 0 mm 2 mps 478 mmHg 37%
    07:00 +2°C° 0 mm 2 mps 479 mmHg 34%
    08:00 +2°C° 0 mm 2 mps 479 mmHg 31%
    09:00 +4°C° 0 mm 2 mps 480 mmHg 30%
    10:00 +5°C° 0 mm 2 mps 481 mmHg 28%
    11:00 +6°C° 0 mm 2 mps 481 mmHg 26%
    12:00 +5°C° 0 mm 3 mps 481 mmHg 26%
    13:00 +7°C° 0 mm 3 mps 481 mmHg 25%
    14:00 +7°C° 0 mm 4 mps 482 mmHg 25%
    15:00 +6°C° 0 mm 4 mps 481 mmHg 26%
    16:00 +6°C° 0 mm 4 mps 481 mmHg 28%
    17:00 +5°C° 0 mm 4 mps 481 mmHg 29%
    18:00 +4°C° 0 mm 3 mps 481 mmHg 35%
    19:00 +3°C° 0 mm 3 mps 480 mmHg 41%
    20:00 +2°C° 0 mm 2 mps 480 mmHg 47%
    21:00 +2°C° 0 mm 2 mps 480 mmHg 50%
    22:00 +2°C° 0 mm 2 mps 480 mmHg 53%
    23:00 +1°C° 0 mm 2 mps 479 mmHg 55%

    30 September, Saturday

    Time Temperature Precipitation Wind Pressure Humidity
    00:00 +1°C° 0 mm 2 mps 479 mmHg 55%
    01:00 +1°C° 0 mm 2 mps 479 mmHg 54%
    02:00 +1°C° 0 mm 2 mps 479 mmHg 54%
    03:00 -1°C° 0 mm 2 mps 479 mmHg 53%
    04:00 -1°C° 0 mm 2 mps 479 mmHg 52%
    05:00 -1°C° 0 mm 2 mps 478 mmHg 50%
    06:00 +1°C° 0 mm 2 mps 479 mmHg 45%
    07:00 +2°C° 0 mm 2 mps 480 mmHg 39%
    08:00 +3°C° 0 mm 2 mps 481 mmHg 33%
    09:00 +4°C° 0 mm 2 mps 481 mmHg 28%
    10:00 +5°C° 0 mm 2 mps 482 mmHg 24%
    11:00 +7°C° 0 mm 2 mps 483 mmHg 19%
    12:00 +7°C° 0 mm 2 mps 483 mmHg 18%
    13:00 +8°C° 0 mm 3 mps 483 mmHg 18%
    14:00 +9°C° 0 mm 3 mps 483 mmHg 18%
    15:00 +8°C° 0 mm 3 mps 483 mmHg 19%
    16:00 +8°C° 0 mm 3 mps 483 mmHg 21%
    17:00 +8°C° 0 mm 3 mps 483 mmHg 23%
    18:00 +5°C° 0 mm 3 mps 482 mmHg 27%
    19:00 +5°C° 0 mm 2 mps 481 mmHg 32%
    20:00 +4°C° 0 mm 2 mps 481 mmHg 36%
    21:00 +3°C° 0 mm 2 mps 480 mmHg 38%
    22:00 +3°C° 0 mm 2 mps 480 mmHg 39%
    23:00 +3°C° 0 mm 2 mps 480 mmHg 41%

    1 October, Sunday

    Time Temperature Precipitation Wind Pressure Humidity
    00:00 +2°C° 0 mm 2 mps 480 mmHg 40%
    01:00 +2°C° 0 mm 2 mps 479 mmHg 39%
    02:00 +2°C° 0 mm 2 mps 479 mmHg 39%
    03:00 +1°C° 0 mm 2 mps 479 mmHg 37%
    04:00 +1°C° 0 mm 2 mps 478 mmHg 35%
    05:00 +1°C° 0 mm 2 mps 478 mmHg 34%
    06:00 +2°C° 0 mm 2 mps 479 mmHg 29%
    07:00 +3°C° 0 mm 2 mps 480 mmHg 25%
    08:00 +4°C° 0 mm 2 mps 481 mmHg 21%
    09:00 +6°C° 0 mm 2 mps 482 mmHg 19%
    10:00 +7°C° 0 mm 2 mps 482 mmHg 17%
    11:00 +8°C° 0 mm 2 mps 483 mmHg 15%
    12:00 +9°C° 0 mm 2 mps 483 mmHg 15%
    13:00 +9°C° 0 mm 3 mps 483 mmHg 15%
    14:00 +10°C° 0 mm 3 mps 483 mmHg 15%
    15:00 +9°C° 0 mm 3 mps 483 mmHg 16%
    16:00 +9°C° 0 mm 3 mps 483 mmHg 18%
    17:00 +8°C° 0 mm 3 mps 482 mmHg 19%
    18:00 +7°C° 0 mm 3 mps 482 mmHg 23%
    19:00 +6°C° 0 mm 2 mps 481 mmHg 27%
    20:00 +5°C° 0 mm 2 mps 480 mmHg 32%
    21:00 +4°C° 0 mm 2 mps 480 mmHg 33%
    22:00 +4°C° 0 mm 2 mps 480 mmHg 34%
    23:00 +3°C° 0 mm 2 mps 479 mmHg 35%
    Show more